GW6424 Weather Reports


time (UTC)temp
F
wind
direction
speed
knots
gust
knots
rain 1hr
in
rain 24hr
in
rain mn
in
humidity
%
barometer
mb
20260505024808 58 327 0.0 0.0 0.00 0.08 0.00 82 1024.3
20260505024314 59 327 0.0 0.0 0.00 0.08 0.00 83 1024.5
20260505023809 59 327 0.0 0.0 0.00 0.08 0.00 81 1024.5
20260505023306 58 327 0.0 0.0 0.00 0.09 0.00 83 1024.6
20260505022806 58 327 0.0 0.9 0.00 0.09 0.00 83 1024.6
20260505022307 58 196 0.0 0.9 0.00 0.13 0.00 83 1024.6
20260505021806 58 333 0.0 0.0 0.00 0.17 0.00 82 1024.7
20260505021307 58 333 0.0 0.0 0.00 0.17 0.00 83 1024.7
20260505020808 58 333 0.0 0.0 0.00 0.17 0.00 85 1024.8
20260505020310 57 333 0.0 0.0 0.00 0.17 0.00 85 1024.8
20260505015858 56 259 0.0 0.0 0.00 0.17 0.00 86 1024.9
20260505015840 56 333 0.0 0.0 0.00 0.17 0.00 85 1024.8
20260505014807 56 154 0.0 0.0 0.00 0.17 0.00 87 1024.9
20260505014307 56 154 0.0 0.0 0.00 0.17 0.00 87 1025.0
20260505013808 56 154 0.0 0.0 0.00 0.17 0.00 86 1025.0
20260505013307 56 154 0.0 0.0 0.00 0.17 0.00 87 1024.9
20260505012807 56 154 0.0 0.0 0.00 0.17 0.00 88 1024.6
20260505012306 55 154 0.0 0.0 0.00 0.17 0.00 88 1025.0
20260505011805 55 154 0.0 0.0 0.00 0.17 0.00 89 1024.9
20260505011306 55 154 0.0 0.0 0.00 0.17 0.00 89 1024.9
20260505010807 55 154 0.0 0.9 0.00 0.17 0.00 89 1024.9
20260505010308 55 154 0.0 0.9 0.00 0.17 0.00 90 1024.9
20260505005814 55 313 0.0 0.0 0.00 0.17 0.00 90 1024.9
20260505005549 54 313 0.0 0.0 0.00 0.17 0.00 91 1024.9
20260505004806 54 313 0.0 0.0 0.00 0.17 0.00 91 1024.9
20260505004541 54 313 0.0 0.0 0.00 0.17 0.00 91 1024.9
20260505003808 54 313 0.0 0.0 0.00 0.17 0.00 92 1024.8
20260505003308 54 273 0.0 0.0 0.00 0.17 0.00 93 1024.8
20260505002807 53 306 0.0 0.9 0.00 0.17 0.00 93 1024.7
20260505002307 53 315 0.0 0.9 0.00 0.17 0.00 94 1024.7
20260505001820 53 309 0.0 0.0 0.00 0.17 0.00 94 1024.3
20260505001807 53 309 0.0 0.0 0.00 0.17 0.00 94 1024.3
20260505000746 53 313 0.0 0.0 0.00 0.17 0.00 95 1024.1
20260505000233 53 313 0.0 0.0 0.00 0.17 0.00 95 1024.6
20260504235734 53 313 0.0 0.9 0.00 0.17 0.00 95 1024.6
20260504235236 53 294 0.0 0.9 0.00 0.17 0.00 96 1024.6
20260504235020 52 348 0.0 0.0 0.00 0.17 0.00 96 1024.5
20260504234524 52 348 0.0 0.0 0.00 0.17 0.00 96 1024.5
20260504233734 52 348 0.0 0.9 0.00 0.17 0.00 96 1024.5
20260504233234 52 348 0.0 0.9 0.00 0.17 0.00 96 1024.5
20260504232809 51 137 0.0 0.0 0.00 0.17 0.00 96 1024.5
20260504231733 51 137 0.0 0.0 0.00 0.17 0.00 96 1024.5
20260504231239 51 137 0.0 0.9 0.00 0.17 0.00 96 1024.3
20260504230735 51 137 0.0 0.9 0.00 0.17 0.00 96 1024.3
20260504230235 51 121 0.0 0.0 0.00 0.17 0.00 96 1024.3
20260504225736 51 121 0.0 0.0 0.00 0.17 0.00 96 1024.3
20260504225234 51 121 0.0 0.0 0.00 0.18 0.00 97 1024.1
20260504224733 51 121 0.0 0.0 0.00 0.18 0.00 97 1024.1
20260504224537 50 121 0.0 0.0 0.00 0.18 0.00 97 1024.0
20260504224532 51 121 0.0 0.0 0.00 0.18 0.00 97 1024.0
20260504223233 50 121 0.0 0.0 0.00 0.18 0.00 97 1023.9
20260504222734 50 121 0.0 0.0 0.00 0.18 0.00 97 1023.9
20260504222235 50 121 0.0 0.0 0.00 0.18 0.00 97 1023.8
20260504221735 49 121 0.0 0.0 0.00 0.18 0.00 97 1023.7
20260504221234 49 121 0.0 0.0 0.00 0.18 0.00 97 1023.7
20260504220733 49 121 0.0 0.0 0.00 0.18 0.00 97 1023.7
20260504220233 48 121 0.0 0.0 0.00 0.18 0.00 97 1023.6
20260504215733 48 121 0.0 0.0 0.00 0.18 0.00 97 1023.6
20260504215233 49 121 0.0 0.0 0.00 0.18 0.00 96 1023.5
20260504215024 49 121 0.0 0.0 0.00 0.18 0.00 97 1023.5
20260504214234 48 121 0.0 0.0 0.00 0.18 0.00 97 1023.4
20260504213732 48 121 0.0 0.0 0.00 0.18 0.00 97 1023.2
20260504213232 48 121 0.0 0.0 0.00 0.18 0.00 96 1023.2
20260504212738 48 121 0.0 0.0 0.00 0.19 0.00 97 1023.1
20260504212232 48 121 0.0 0.0 0.00 0.19 0.00 97 1022.6
20260504211715 48 121 0.0 0.0 0.00 0.19 0.00 97 1023.1
20260504211206 48 121 0.0 0.0 0.00 0.19 0.00 97 1023.1
20260504210707 48 121 0.0 0.0 0.00 0.20 0.00 97 1023.1
20260504210209 48 121 0.0 0.0 0.00 0.20 0.00 96 1023.0
20260504205947 48 121 0.0 0.0 0.00 0.20 0.00 97 1022.9
20260504205208 48 121 0.0 0.0 0.00 0.20 0.00 96 1022.9
20260504204710 48 121 0.0 0.0 0.00 0.20 0.00 96 1022.8
20260504204207 48 121 0.0 0.0 0.00 0.21 0.00 96 1022.8
20260504203724 48 121 0.0 0.0 0.00 0.21 0.00 96 1022.7
20260504202707 48 121 0.0 0.0 0.00 0.21 0.00 97 1022.6
20260504202207 48 121 0.0 0.0 0.00 0.21 0.00 96 1022.5
20260504201746 47 121 0.0 0.0 0.00 0.21 0.00 96 1022.5
20260504201727 48 121 0.0 0.0 0.00 0.21 0.00 96 1022.5
20260504200707 47 121 0.0 0.0 0.00 0.21 0.00 96 1022.4
20260504200209 47 121 0.0 0.0 0.00 0.21 0.00 96 1022.4
20260504195709 47 121 0.0 0.0 0.00 0.21 0.00 96 1021.8
20260504195206 47 121 0.0 0.0 0.00 0.21 0.00 96 1022.4
20260504194708 47 121 0.0 0.0 0.00 0.21 0.00 96 1022.3
20260504194207 47 121 0.0 0.0 0.00 0.21 0.00 96 1022.3
20260504193707 47 121 0.0 0.0 0.00 0.21 0.00 96 1022.3
20260504193212 47 121 0.0 0.0 0.00 0.21 0.00 96 1022.3
20260504192714 47 121 0.0 0.0 0.00 0.21 0.00 96 1022.2
20260504192206 47 121 0.0 0.0 0.00 0.21 0.00 96 1022.2
20260504191707 48 121 0.0 0.0 0.00 0.21 0.00 96 1022.2
20260504191206 47 121 0.0 0.0 0.00 0.21 0.00 96 1022.0
20260504190708 47 121 0.0 0.0 0.00 0.21 0.00 96 1022.0
20260504190241 47 121 0.0 0.0 0.00 0.21 0.00 96 1022.2
20260504190224 47 121 0.0 0.0 0.00 0.21 0.00 96 1022.0
20260504185456 47 121 0.0 0.0 0.00 0.21 0.00 96 1022.0
20260504184742 47 121 0.0 0.0 0.00 0.21 0.00 96 1021.8
20260504184728 47 121 0.0 0.0 0.00 0.21 0.00 96 1021.9
20260504183958 47 121 0.0 0.0 0.00 0.21 0.00 96 1021.8
20260504183200 47 121 0.0 0.0 0.00 0.22 0.00 96 1021.0
20260504182936 47 121 0.0 0.0 0.00 0.22 0.00 96 1020.9
20260504182133 46 121 0.0 0.0 0.00 0.22 0.00 96 1021.6
20260504182025 46 121 0.0 0.0 0.00 0.22 0.00 96 1021.7
20260504182021 46 121 0.0 0.0 0.00 0.22 0.00 96 1021.7
20260504182015 46 121 0.0 0.0 0.00 0.22 0.00 96 1021.7
20260504180136 47 121 0.0 0.0 0.00 0.23 0.00 96 1021.8
20260504175635 47 121 0.0 0.0 0.00 0.24 0.00 96 1021.8
20260504175133 47 121 0.0 0.0 0.00 0.24 0.00 96 1021.8
20260504174930 47 121 0.0 0.0 0.00 0.24 0.00 96 1021.8
20260504174135 47 121 0.0 0.0 0.00 0.24 0.00 96 1021.8
20260504173635 47 121 0.0 0.0 0.00 0.24 0.00 96 1021.8
20260504173137 47 121 0.0 0.0 0.00 0.24 0.00 96 1021.9
20260504172715 46 121 0.0 0.0 0.00 0.24 0.00 96 1022.0
20260504172657 47 121 0.0 0.0 0.00 0.24 0.00 96 1021.9
20260504171926 47 121 0.0 0.0 0.00 0.24 0.00 96 1022.2
20260504171134 47 121 0.0 0.0 0.00 0.24 0.00 96 1022.0
20260504170914 47 121 0.0 0.0 0.00 0.24 0.00 96 1022.0
20260504170137 48 121 0.0 0.0 0.00 0.24 0.00 96 1022.0
20260504160421 47 121 0.0 0.0 0.00 0.24 0.00 96 1022.2
20260504150607 48 121 0.0 0.0 0.00 0.24 0.00 96 1021.8
20260504150107 48 121 0.0 0.0 0.00 0.24 0.00 96 1021.8
20260504141105 47 121 0.0 0.0 0.00 0.24 0.24 96 1021.6
20260504140607 47 121 0.0 0.0 0.00 0.24 0.24 96 1021.7
20260504140342 47 121 0.0 0.0 0.00 0.24 0.24 96 1021.7
20260504130606 47 121 0.0 0.0 0.00 0.24 0.24 95 1021.6
20260504130113 48 121 0.0 0.0 0.00 0.24 0.24 95 1021.6
20260504110533 49 121 0.0 0.0 0.00 0.24 0.24 94 1021.0
20260504100557 50 121 0.0 0.0 0.00 0.36 0.24 94 1019.6
20260504100544 49 121 0.0 0.0 0.00 0.36 0.24 94 1020.1
20260504082007 54 121 0.0 0.0 0.00 0.38 0.24 93 1018.9
20260504081749 54 121 0.0 0.0 0.00 0.38 0.24 93 1018.7
20260504081015 54 121 0.0 0.0 0.00 0.38 0.24 93 1018.7
20260504080507 54 121 0.0 0.0 0.00 0.38 0.24 93 1018.6
20260504050509 55 107 0.0 0.0 0.02 0.38 0.24 95 1017.1
20260504050250 54 107 0.0 0.0 0.03 0.38 0.24 95 1017.1
20260504045508 55 107 0.0 0.0 0.05 0.38 0.24 95 1017.0
20260504045007 55 107 0.0 0.9 0.05 0.38 0.24 95 1017.0
20260504044508 54 107 0.0 0.9 0.05 0.38 0.24 95 1016.9
20260504044009 55 5 0.0 0.0 0.05 0.38 0.24 95 1016.9
20260504043510 54 5 0.0 0.0 0.04 0.37 0.23 95 1016.8
20260504043011 54 5 0.0 0.0 0.05 0.37 0.22 95 1016.8
20260504042435 55 194 0.0 0.0 0.04 0.36 0.22 95 1016.8
20260504041937 55 194 0.0 0.9 0.04 0.36 0.22 95 1016.8
20260504041437 54 194 0.0 0.9 0.04 0.36 0.22 95 1016.9
20260504040936 54 277 0.0 0.0 0.04 0.36 0.21 94 1016.9
20260504040719 55 277 0.0 0.9 0.04 0.35 0.20 95 1016.9
20260504035934 55 277 0.0 0.9 0.03 0.35 0.20 95 1016.9
20260504035734 55 103 0.0 0.9 0.02 0.33 0.19 95 1016.9
20260504035225 55 154 0.0 0.0 0.03 0.33 0.19 94 1016.8
20260504034436 55 130 0.0 0.9 0.03 0.33 0.19 94 1016.9
20260504033935 55 130 0.0 0.9 0.03 0.33 0.19 94 1016.8
20260504033718 56 132 0.0 0.0 0.04 0.33 0.18 95 1016.8
20260504033218 55 132 0.0 0.0 0.04 0.32 0.18 94 1016.8
20260504032442 55 132 0.9 5.2 0.06 0.32 0.18 94 1016.8
20260504031936 56 97 0.0 5.2 0.11 0.32 0.18 95 1016.8
20260504031513 54 161 0.9 1.7 0.11 0.32 0.18 94 1016.8
20260504031456 55 344 0.9 1.7 0.11 0.32 0.18 95 1016.8
20260504030437 54 111 0.0 0.9 0.10 0.31 0.17 94 1016.8
20260504025934 54 182 0.0 0.9 0.10 0.31 0.17 93 1016.9
20260504025434 55 126 0.0 0.9 0.09 0.31 0.16 94 1017.2